Tracking 29892 objects as of 21-Nov-2024
HD Live streaming from Space Station
objects crossing your sky now

JILIN-01 GAOFEN 3D 33

Track JILIN-01 GAOFEN 3D 33 now!
10-day predictions


NORAD ID: 52450
Int'l Code: 2022-048H
Perigee: 466.3 km
Apogee: 478.4 km
Inclination: 97.6 °
Period: 93.9 minutes
Semi major axis: 6843 km
RCS: Unknown
Launch date: May 5, 2022
Source: People's Republic of China (PRC)
Launch site: Taiyaun Space Center, China (TSC)
Your satellite tracking list
Your tracking list is empty




NASA's NSSDC Master Catalog

Two Line Element Set (TLE):
1 52450U 22048H   24326.17302558  .00035945  00000-0  11056-2 0  9991
2 52450  97.5883  49.0173 0008830 281.5468  78.4782 15.33550039141281
Source of the keplerian elements: AFSPC